This demonstration page uses our WeatherBlox Daily Observations layout. Learn more.

38.88101, -77.10428

Hourly Observations for June 2, 2016

Temp ( °F °C ) Dew Point ( °F °C ) Humidity (%) Winds ( mph kmh ) Pressure ( in mb ) Visibility ( mi km ) Precip ( " mm )
12:52 am 00:52 Partly Cloudy 72 22.2 65 18.3 79 79 SE 3 6 30.08 1019 10 16.0934 0 0
1:52 am 01:52 Partly Cloudy 72 22.2 65 18.3 79 79 SE 5 7 30.08 1019 10 16.0934 0 0
2:52 am 02:52 Mostly Cloudy 71 21.7 65 18.3 81 81 SE 8 13 30.06 1018 10 16.0934 0 0
3:52 am 03:52 Clear 71 21.7 65 18.3 81 81 Calm 30.06 1018 10 16.0934 0 0
4:21 am 04:21 Mostly Clear 70 21 66 19 88 88 E 5 7 30.06 1018 10 16.0934 0 0
4:52 am 04:52 Partly Cloudy 69 20.6 65 18.3 87 87 SE 3 6 30.06 1018 10 16.0934 0 0
5:52 am 05:52 Mostly Cloudy 68 20 65 18.3 90 90 SSE 7 11 30.08 1019 10 16.0934 0 0
6:00 am 06:00 Cloudy 68 20 64 18 88 88 SE 10 17 30.09 1019 10 16.0934 0 0
6:13 am 06:13 Cloudy 68 20 66 18.9 93 93 SSE 5 7 30.09 1019 10 16.0934 0 0
6:52 am 06:52 Cloudy 68 20 65 18.3 90 90 SE 6 9 30.1 1019 10 16.0934 0 0
7:52 am 07:52 Cloudy 69 20.6 65 18.3 87 87 ENE 9 15 30.1 1019 10 16.0934 0 0
8:52 am 08:52 Cloudy 70 21.1 64 17.8 82 82 ENE 5 7 30.12 1020 10 16.0934 0 0
9:44 am 09:44 Cloudy 72 22 64 18 78 78 E 6 9 30.12 1020 10 16.0934 0 0
9:52 am 09:52 Cloudy 71 21.7 64 17.8 79 79 SE 6 9 30.11 1020 10 16.0934 0 0
10:52 am 10:52 Cloudy 71 21.7 64 17.8 79 79 Calm 30.11 1020 10 16.0934 0 0
11:52 am 11:52 Cloudy 74 23.3 65 18.3 74 74 E 3 6 30.1 1019 10 16.0934 0 0
12:52 pm 12:52 Mostly Cloudy 77 25 65 18.3 66 66 SSE 5 7 30.09 1019 10 16.0934 0 0
1:04 pm 13:04 Mostly Cloudy 75 24 64 18 69 69 VRB 3 6 30.09 1019 10 16.0934 0 0
1:52 pm 13:52 Cloudy 79 26.1 67 19.4 67 67 Calm 30.07 1018 10 16.0934 0 0
2:52 pm 14:52 Mostly Cloudy 80 26.7 68 20 67 67 VRB 5 7 30.05 1018 10 16.0934 0 0
3:52 pm 15:52 Cloudy 81 27.2 67 19.4 62 62 E 6 9 30.03 1017 10 16.0934 0 0
4:52 pm 16:52 Cloudy 81 27.2 68 20 65 65 E 8 13 30.01 1016 10 16.0934 0 0
5:52 pm 17:52 Mostly Cloudy 79 26.1 67 19.4 67 67 ESE 9 15 30.01 1016 10 16.0934 0 0
6:52 pm 18:52 Mostly Cloudy 78 25.6 67 19.4 69 69 ESE 6 9 30.01 1016 10 16.0934 0 0
7:52 pm 19:52 Cloudy 77 25 67 19.4 71 71 ESE 8 13 30.03 1017 10 16.0934 0 0
8:52 pm 20:52 Cloudy 75 23.9 67 19.4 76 76 ESE 9 15 30.03 1017 10 16.0934 0 0
9:52 pm 21:52 Cloudy 74 23.3 67 19.4 79 79 SE 3 6 30.04 1017 10 16.0934 0 0
10:52 pm 22:52 Cloudy 74 23.3 67 19.4 79 79 Calm 30.05 1018 10 16.0934 0 0
11:52 pm 23:52 Cloudy 73 22.8 68 20 84 84 SSE 5 7 30.05 1018 10 16.0934 0 0

Powered by AerisWeather